Wind_Speed
36 36 37 37 40 39 35 35 27 23 22 22 22 23 22 21 20 21 20 21 22 21
30 36 41 43 39 38 32 23 23 21 19 19 19 21 21 21 19 18 18 18 17 16
29 33 37 37 34 31 25 21 23 21 19 19 21 21 21 18 16 17 17 17 16 15
30 33 34 36 34 27 23 22 23 21 21 24 24 22 19 18 19 17 17 17 16 14
30 30 29 31 28 24 22 24 22 22 26 26 23 21 21 22 18 18 19 17 15 15
27 29 28 26 23 22 25 25 23 27 29 25 23 24 23 19 19 18 18 17 17 16
27 27 25 23 24 25 25 25 27 29 26 24 25 23 19 19 19 17 16 16 15 15
24 25 27 27 27 26 26 27 29 27 23 23 23 21 21 18 15 14 14 15 15 14
22 24 24 26 27 28 26 26 26 25 25 24 22 20 17 14 14 13 13 15 15 14
24 22 25 29 31 29 28 28 28 25 25 22 20 18 15 14 13 13 12 13 14 13
27 25 29 29 29 31 30 29 28 25 22 20 16 15 13 13 11 9 9 9 11 11
30 28 28 28 30 32 32 27 24 22 18 16 15 13 12 11 10 9 8 8 9 10
30 31 30 33 35 30 29 27 24 20 16 15 15 12 11 10 11 10 11 11 11 10
31 32 37 35 33 31 30 27 22 20 16 15 12 12 11 10 9 11 14 14 12 10
Wind_Direction
236 227 230 225 226 228 229 231 231 232 238 245 240 231 218 213 213 214 216 224 222 223
239 229 229 233 229 230 233 238 230 227 231 230 221 208 197 197 204 211 210 209 210 212
248 240 237 234 229 232 236 227 218 219 218 209 198 191 189 197 204 195 195 197 194 196
244 240 237 234 236 231 226 214 207 208 200 192 187 186 194 197 190 190 188 191 189 192
237 235 230 229 227 221 211 202 200 195 188 185 185 189 188 187 182 184 187 182 188 190
227 222 217 213 211 199 195 189 188 184 182 184 183 184 188 188 186 187 188 190 188 188
209 205 196 184 181 181 186 182 182 184 185 181 184 185 179 181 181 183 189 193 197 197
183 179 170 171 176 179 178 177 180 174 178 178 177 176 173 175 176 184 193 200 205 207
154 153 152 158 162 162 165 166 168 170 171 171 169 169 174 174 180 190 198 204 207 212
151 150 149 152 154 155 159 162 165 167 162 161 162 168 175 182 190 196 207 213 213 214
146 145 149 146 146 150 157 156 153 151 153 156 161 172 183 189 192 196 202 202 199 192
143 140 143 138 136 141 147 145 145 147 150 154 150 160 169 176 172 170 168 171 177 187
139 140 138 130 134 143 145 140 137 132 140 144 141 148 156 168 162 152 152 151 157 170
128 130 129 133 142 142 136 132 125 120 126 130 133 139 151 154 160 160 156 156 153 149
Height
674 677 680 679 680 685 688 692 699 703 706 709 711 716 720 722 725 728 731 735 738 740
663 667 670 672 674 678 682 689 693 697 702 705 709 713 716 719 722 725 728 733 735 737
652 656 660 666 668 672 678 683 688 692 696 701 706 709 713 717 720 723 726 730 733 735
644 648 652 657 664 668 674 677 682 686 691 698 703 706 710 715 718 721 725 728 730 734
639 643 647 651 658 664 668 673 678 682 689 696 700 704 708 713 716 719 723 725 729 733
634 638 642 646 655 659 665 670 675 682 688 693 698 703 706 710 714 718 721 724 728 731
628 632 636 643 651 657 663 667 673 680 685 691 697 701 705 709 713 716 720 724 727 730
624 629 634 641 649 655 661 666 673 679 685 691 695 700 704 708 711 716 720 722 726 728
624 629 635 643 649 654 661 667 673 680 685 690 694 699 704 707 711 715 718 721 723 726
622 630 636 642 647 653 661 668 674 680 685 690 694 699 703 707 711 714 717 719 721 723
619 628 635 641 648 655 662 669 675 682 687 691 695 699 703 707 710 713 715 717 719 721
616 627 635 641 647 656 664 672 678 683 688 692 696 700 704 707 709 712 714 715 718 720
617 628 636 640 650 660 666 673 680 685 690 694 697 701 704 706 708 711 713 715 718 721
619 627 632 643 654 662 669 675 683 689 694 697 699 702 705 706 708 711 713 716 719 721